Location: Hopewell Observatory
(38.8698°N, 77.6988°W)
Time: 12:47:53
(UTC-04:00)

Daily predictions for brighter satellites

Satellite Brightness Start Highest point End
(mag) Time Altitude Azimuth Time Altitude Azimuth Time Altitude Azimuth
Cosmos 2263 4.4 20:44:09 10° NNW 20:49:58 87° WSW 20:55:41 10° SSE
Cosmos 1709 Rocket 4.0 20:46:47 10° N 20:53:05 73° E 20:59:15 10° SSE
Cosmos 1743 4.1 20:50:46 10° NNE 20:53:52 22° ENE 20:56:57 10° SE
CZ-2D R/B 3.6 20:51:00 10° S 20:54:48 66° W 20:58:36 10° NNW
Iridium 4 Rocket 3.5 20:50:46 10° N 20:55:47 78° E 21:01:15 10° S
Envisat 3.2 20:50:59 10° SSE 20:55:55 55° ENE 21:00:53 10° N
Spot 1 4.5 20:54:22 10° SSE 20:58:49 50° ENE 21:03:03 10° N
ASTRO E2 3.8 20:56:17 10° WSW 20:59:42 27° S 21:03:07 10° ESE
Aureole 3 Rocket 4.5 20:55:41 10° SSE 21:01:55 36° E 21:06:34 10° NNE
Tiangong 2 2.0 21:06:56 10° SSW 21:09:43 28° SSE 21:12:30 10° E
Aureole 1 Rocket 3.8 21:08:51 10° SSE 21:11:26 19° ESE 21:13:46 10° NE
NOSS 2-2 (E) 3.4 21:08:27 10° SSW 21:12:24 72° ESE 21:16:54 10° NE
Meteor 2-4 Rocket 4.3 21:14:19 10° SSE 21:19:24 37° E 21:24:38 10° NNE
ISS -2.7 21:19:18 10° S 21:22:01 24° SE 21:24:45 10° ENE
USA 186 3.4 21:19:17 10° SSW 21:22:14 33° W 21:25:10 10° NNW
BREEZE-M DEB (TANK) 4.5 21:19:12 10° WNW 21:23:32 80° SSW 21:37:04 14° SE
Cosmos 1666 3.5 21:21:10 10° NNE 21:24:34 32° ENE 21:26:55 17° SE
OAO 2 Rocket 3.6 21:21:49 10° WSW 21:26:33 47° S 21:31:03 12° E
Cosmos 923 Rocket 4.0 21:21:26 10° S 21:26:43 69° ESE 21:32:00 10° NNE
Cosmos 1536 Rocket 3.7 21:27:44 10° SSW 21:32:03 75° W 21:36:23 10° N
CZ-3A R/B 2.1 21:27:43 10° SSW 21:32:17 23° SE 21:33:08 20° ESE
Cosmos 2184 Rocket 4.1 21:26:53 10° N 21:33:11 62° E 21:38:55 12° SSE
Cosmos 2074 Rocket 4.1 21:27:11 10° N 21:33:24 65° E 21:39:13 12° SSE
Cosmos 1437 3.2 21:31:03 10° SSW 21:34:14 62° W 21:37:27 10° N
CZ-4B DEB 2.9 21:31:49 11° S 21:34:36 64° W 21:37:34 10° NNW
Helios 1A 3.6 21:30:33 10° S 21:34:41 56° WSW 21:38:51 10° NNW
USA 245 4.5 21:38:45 14° ENE 21:38:54 14° ENE 21:40:24 10° NE
Meteor 1-19 Rocket 4.2 21:34:42 10° S 21:40:32 83° E 21:46:19 10° N
Meteor 1-29 3.7 21:37:21 10° N 21:40:39 53° WNW 21:43:55 10° SSW
YAOGAN 6 2.5 21:42:06 17° S 21:44:42 86° WSW 21:48:13 10° NNW
ERS-1 Rocket 3.0 21:41:29 17° SSE 21:45:23 69° ENE 21:50:23 10° N
Cosmos 1656 Rocket 3.6 21:40:12 10° NNW 21:45:41 89° ENE 21:49:49 18° SSE
Cosmos 2369 Rocket 4.5 21:42:21 10° NW 21:46:17 20° W 21:50:14 10° SW
Meteor 1-23 Rocket 4.4 21:43:45 13° SSE 21:48:31 51° E 21:53:55 10° NNE
MetOp-A 4.3 21:45:09 19° SE 21:48:50 56° ENE 21:54:04 10° N
MOS 1-B Rocket 4.2 21:46:03 19° SE 21:50:03 56° ENE 21:56:09 10° N
Cosmos 405 Rocket 3.1 21:47:33 10° SSW 21:51:14 62° W 21:55:01 10° N
Resurs 01 Rocket 4.4 21:51:36 10° SW 21:53:55 14° W 21:56:16 10° WNW
H-2A R/B 3.1 21:52:51 20° ESE 21:55:03 28° ENE 21:59:16 10° N
Cosmos 2112 Rocket 3.9 21:54:18 10° SSW 21:59:31 88° ESE 22:04:45 10° NNE
Cosmos 192 4.2 21:55:20 10° S 22:00:13 73° ESE 22:05:07 10° NNE
Cosmos 1025 Rocket 3.0 21:58:34 24° SSE 22:01:01 60° E 22:05:13 10° NNE
Cosmos 1943 Rocket 3.9 21:56:51 10° NW 22:01:30 28° WSW 22:06:07 10° SSW
CENTAUR R/B 3.2 21:55:15 10° NW 22:03:16 77° WSW 22:09:18 21° SSE
Cosmos 1441 Rocket 3.0 22:01:18 18° S 22:03:58 88° W 22:07:43 10° N
Nadezhda 1 Rocket 4.0 22:00:43 10° S 22:07:03 87° W 22:13:29 10° N
PSLV R/B 3.5 22:06:30 10° WNW 22:09:35 58° N 22:10:40 34° ENE
NOAA 11 4.2 22:07:47 23° SSE 22:11:20 87° WSW 22:16:49 10° NNW
COSMOS 2406 4.0 22:10:33 10° SW 22:16:07 53° WNW 22:21:44 10° NNE
SL-08 RB Rocket 3.8 22:14:43 36° SE 22:16:17 58° ENE 22:20:42 10° N
ARGOS 3.1 22:13:33 29° SSE 22:16:23 75° ENE 22:21:49 10° N
Cosmos 2154 Rocket 4.0 22:10:27 10° N 22:16:49 74° E 22:20:26 27° SSE
COSMOS 2455 4.4 22:12:31 10° NW 22:17:34 29° WSW 22:22:27 11° SSW
SL-27 R/B 3.1 22:14:28 12° SSW 22:17:49 58° WNW 22:21:27 10° N
Nimbus 7 Rocket 4.5 22:12:37 10° NNE 22:18:39 62° ESE 22:22:26 23° S
Cosmos 1680 Rocket 4.5 22:18:10 10° SW 22:23:12 47° WNW 22:28:15 10° N
SPOT 5 2.5 22:23:04 40° SSE 22:24:36 88° E 22:28:57 10° NNW
H-2A R/B 3.4 22:24:49 25° E 22:25:36 27° ENE 22:29:23 10° NNE
Cosmos 2056 Rocket 3.7 22:22:31 10° N 22:27:36 54° ENE 22:29:09 39° ESE
Cosmos 2082 Rocket 3.1 22:28:02 29° ESE 22:28:02 29° ESE 22:32:49 10° NE
Cosmos 405 3.7 22:30:41 10° NNW 22:34:08 47° W 22:34:56 39° SW
Terra 2.5 22:37:12 35° E 22:37:59 37° ENE 22:42:22 10° N
Meteor 2-19 Rocket 4.4 22:35:39 10° N 22:41:48 87° E 22:44:23 38° S
Cosmos 967 Rocket 4.3 22:38:24 14° SSW 22:43:55 78° ESE 22:50:12 10° NNE
Cosmos 2341 Rocket 4.0 22:38:32 10° N 22:44:55 88° E 22:47:39 37° S
Cosmos 2369 4.1 22:39:49 10° NNW 22:45:24 50° ENE 22:46:58 39° ESE
COSMOS 2487 3.9 22:47:21 29° NE 22:47:21 29° NE 22:49:23 10° NNE
SPOT 1/Viking Rocket 3.5 22:44:17 44° S 22:45:59 82° WSW 22:51:11 10° NNW
Tiangong 2 2.0 22:43:11 10° W 22:45:37 45° WNW 22:45:37 45° WNW
Cosmos 1437 Rocket 3.0 22:45:16 10° NNW 22:49:02 60° W 22:49:25 56° SW
Okean 2 4.4 22:50:04 26° SW 22:51:50 42° W 22:55:45 10° N
Cosmos 1697 Rocket 3.8 22:50:06 10° N 22:55:02 30° ENE 22:56:25 27° E
IGS 5A 3.8 22:56:43 52° ENE 22:56:43 52° ENE 23:00:38 10° N
ISS -2.1 22:55:21 10° W 22:58:24 34° NNW 23:01:27 10° NE
Cosmos 1452 Rocket 4.1 22:54:50 10° N 22:59:51 43° ENE 23:00:34 41° E
Cosmos 2218 Rocket 4.1 22:55:11 10° N 23:01:16 60° E 23:02:38 49° SE
Cosmos 1892 Rocket 4.1 23:01:37 42° SW 23:02:46 56° W 23:07:08 10° N
Cosmos 2228 2.9 23:02:38 10° N 23:06:54 87° NW 23:06:54 87° NW
Cosmos 1602 Rocket 4.1 23:10:37 45° NE 23:10:37 45° NE 23:14:02 10° NNE
OAO 2 Rocket 3.8 23:06:12 10° W 23:10:01 45° SW 23:10:01 45° SW
Cosmos 1833 Rocket 2.6 23:11:23 62° SE 23:11:44 64° ESE 23:17:18 10° NNE
deb Chang Zheng 4 3.6 23:07:32 10° NNE 23:11:26 69° NE 23:11:26 69° NE
Cosmos 921 Rocket 3.0 23:08:25 10° NNW 23:12:52 75° W 23:12:52 75° W
Cosmos 1656 3.7 23:10:15 10° NNW 23:15:40 62° ENE 23:16:17 58° E
Cosmos 1066 Rocket 4.0 23:15:05 61° S 23:16:06 89° W 23:21:43 10° N
Cosmos 2181 Rocket 4.5 23:13:08 28° SSW 23:16:30 58° W 23:22:44 10° N
SL-19 R/B 4.0 23:16:36 10° NNE 23:22:00 85° WNW 23:22:49 65° SSW
CZ-4 R/B 3.8 23:21:23 10° NNE 23:26:26 85° ESE 23:26:30 84° SE
Nadezhda 3 Rocket 4.4 23:29:12 45° E 23:29:32 46° E 23:35:33 10° NNE
Meteor 1-4 Rocket 4.0 23:28:01 10° NNW 23:30:20 37° NNW 23:30:20 37° NNW
Cosmos 1809 Rocket 4.3 23:25:51 10° N 23:31:58 83° W 23:32:56 65° S
USA 267 3.1 23:25:40 10° NE 23:32:12 71° SE 23:34:02 49° SSW
H-2A R/B 3.2 23:33:29 28° WSW 23:34:22 30° W 23:38:44 10° NW
Meteor 2-14 Rocket 4.3 23:28:26 10° N 23:34:31 75° E 23:35:08 68° SE
Cosmos 2058 Rocket 4.3 23:31:43 10° NNW 23:35:42 34° W 23:35:51 34° W
CARTOSAT-1 4.3 23:36:38 47° W 23:36:38 47° W 23:40:27 10° NNW
Cosmos 1980 Rocket 2.8 23:36:36 10° N 23:41:59 43° ENE 23:42:26 42° ENE
SME Rocket 4.3 23:46:35 45° ENE 23:46:36 45° ENE 23:50:55 10° N
SeaSat 1 3.7 23:46:39 30° ENE 23:47:01 31° NE 23:51:19 10° N
Cosmos 2322 Rocket 4.1 23:46:03 10° N 23:50:06 19° NE 23:51:42 17° ENE
